Location: Cheadle
(51.0146°N, 113.5417°W)
Time: 18:19:54
(UTC+00:00)

RS-44 - Pass Details

Date: 09 December 2023
Orbit: 1175 x 1509 km, 82.5° (Epoch: 28 February)

Event Time Altitude Azimuth Distance (km) Brightness Sun altitude
Rises 05:08:13 0° 348° (NNW) 4,152 ? -51.2°
Reaches altitude 10° 05:10:56 10° 348° (NNW) 3,155 ? -51.5°
Enters shadow 05:11:06 11° 348° (NNW) 3,096 ? -51.5°
